Location: Sihaung
(22.8641°N, 94.0549°E)
Time: 13:26:15
(UTC+00:00)

Cosmos 2341 Rocket - Pass Details

Date: 03 March 2021
Orbit: 968 x 1005 km, 82.9° (Epoch: 11 April)

Event Time Altitude Azimuth Distance (km) Brightness Sun altitude
Rises 13:07:18 0° 189° (S) 3,709 7.1 -19.0°
Reaches altitude 10° 13:09:50 10° 191° (S) 2,758 6.5 -19.6°
Maximum altitude 13:16:09 72° 275° (W) 1,040 4.2 -21.1°
Drops below altitude 10° 13:22:26 10° 359° (N) 2,743 6.4 -22.5°
Sets 13:24:58 0° 2° (N) 3,688 7.0 -23.1°
